Alexandria, MN

3:46 PM CST on December 08, 2019 (GMT -0600)
Chandler

Weather History for KAXN - October, 2019

Change the Weather History Date:

Thursday, October 24, 2019

  Actual Average Record
Temperature  
Mean Temperature 35 °F -  
Max Temperature 42 °F 52 °F 77 °F (1989)
Min Temperature 28 °F 35 °F 18 °F (2002)
Degree Days  
Heating Degree Days 30    
Moisture  
Dew Point 24 °F    
Average Humidity 68    
Maximum Humidity 85    
Minimum Humidity 45    
Precipitation  
Precipitation 0.00 in - - ()
Sea Level Pressure  
Sea Level Pressure 30.34 in    
Wind  
Wind Speed 6 mph ()    
Max Wind Speed 9 mph    
Max Gust Speed -    
Visibility 10.0 miles    
Events      
Averages and records for this station are not official NWS values.
T = Trace of Precipitation, MM = Missing Value Source: Averaged Metar Reports

Daily Weather History Graph

Daily Weather History Graph

Search for Another Location

Airport or City:

Astronomy

Oct. 24, 2019 Rise Set
Actual Time 7:50 AM CDT 6:20 PM CDT
Civil Twilight 7:19 AM CDT 6:50 PM CDT
Nautical Twilight 6:44 AM CDT 7:25 PM CDT
Astronomical Twilight 6:10 AM CDT 8:00 PM CDT
Moon 3:02 AM CDT (10/24) 5:05 PM CDT (10/24)
Length of Visible Light 11h 31m
Length of Day
10h 30m
Waning Crescent, 16% of the Moon is Illuminated
Oct 24
Waning Crescent
Oct 27
New
Nov 4
First Quarter
Nov 12
Full
Nov 19
Last Quarter

Hourly Weather History & Observations

Time (CDT) Temp. Windchill Dew Point Humidity Pressure Visibility Wind Dir Wind Speed Gust Speed Precip Events Conditions
12:53 AM 32.0 °F 24.2 °F 24.1 °F 73% 30.24 in 10.0 mi NW 9.2 mph - N/A   Clear
1:53 AM 30.0 °F 23.2 °F 24.1 °F 79% 30.25 in 10.0 mi WNW 6.9 mph - N/A   Clear
2:53 AM 30.0 °F 22.4 °F 25.0 °F 82% 30.26 in 10.0 mi WNW 8.1 mph - N/A   Clear
3:53 AM 28.9 °F 21.9 °F 24.1 °F 82% 30.29 in 10.0 mi West 6.9 mph - N/A   Clear
4:53 AM 28.9 °F 21.9 °F 24.1 °F 82% 30.31 in 10.0 mi WNW 6.9 mph - N/A   Mostly Cloudy
5:53 AM 30.0 °F 23.2 °F 26.1 °F 85% 30.32 in 10.0 mi West 6.9 mph - N/A   Overcast
6:53 AM 28.0 °F 20.8 °F 24.1 °F 85% 30.33 in 10.0 mi NW 6.9 mph - N/A   Scattered Clouds
7:53 AM 28.0 °F 20.8 °F 24.1 °F 85% 30.35 in 10.0 mi NNW 6.9 mph - N/A   Clear
8:53 AM 30.9 °F 25.2 °F 25.0 °F 79% 30.36 in 10.0 mi NW 5.8 mph - N/A   Clear
9:53 AM 34.0 °F 28.0 °F 24.1 °F 67% 30.39 in 10.0 mi WNW 6.9 mph - N/A   Clear
10:53 AM 37.0 °F 31.6 °F 23.0 °F 57% 30.40 in 10.0 mi North 6.9 mph - N/A   Clear
11:53 AM 37.9 °F 32.1 °F 21.9 °F 53% 30.39 in 10.0 mi NW 8.1 mph - N/A   Clear
12:53 PM 39.9 °F 33.9 °F 23.0 °F 51% 30.38 in 10.0 mi NW 9.2 mph - N/A   Clear
1:53 PM 39.9 °F 35.8 °F 23.0 °F 51% 30.38 in 10.0 mi WNW 5.8 mph - N/A   Clear
2:53 PM 42.1 °F 37.1 °F 24.1 °F 49% 30.36 in 10.0 mi SW 8.1 mph - N/A   Clear
3:53 PM 42.1 °F 37.1 °F 21.9 °F 45% 30.36 in 10.0 mi West 8.1 mph - N/A   Clear
4:53 PM 41.0 °F 35.8 °F 23.0 °F 49% 30.35 in 10.0 mi West 8.1 mph - N/A   Clear
5:53 PM 39.0 °F 34.8 °F 21.9 °F 50% 30.35 in 10.0 mi West 5.8 mph - N/A   Clear
6:53 PM 35.1 °F 31.0 °F 23.0 °F 61% 30.35 in 10.0 mi SW 4.6 mph - N/A   Clear
7:53 PM 33.1 °F 28.7 °F 23.0 °F 66% 30.35 in 10.0 mi South 4.6 mph - N/A   Clear
8:53 PM 30.0 °F 24.1 °F 21.9 °F 72% 30.36 in 10.0 mi South 5.8 mph - N/A   Clear
9:53 PM 30.0 °F 24.1 °F 24.1 °F 79% 30.37 in 10.0 mi South 5.8 mph - N/A   Clear
10:53 PM 30.0 °F 23.2 °F 24.1 °F 79% 30.35 in 10.0 mi South 6.9 mph - N/A   Clear
11:53 PM 32.0 °F 24.2 °F 24.1 °F 73% 30.34 in 10.0 mi South 9.2 mph - N/A   Clear